This demonstration page uses our WeatherBlox Daily Observations layout. Learn more.

Hourly Observations for July 9, 2019

Temp ( °F °C ) Dew Point ( °F °C ) Humidity (%) Winds ( mph kmh ) Pressure ( in mb ) Visibility ( mi km ) Precip ( " mm )
12:15 am 00:15 Cloudy with Heavy Thunderstorms 66 18.7 66 18.7 100 100 NW 3 6 29.83 1010 2.5 4.02336 0.28 7.112
12:35 am 00:35 Cloudy 66 18.7 66 18.7 100 100 N 10 17 29.8 1009 10 16.09344 0.35 8.89
12:55 am 00:55 Cloudy with Light Rain 65 18.5 65 18.5 100 100 N 6 9 29.8 1009 10 16.09344 0.36 9.144
1:15 am 01:15 Cloudy with Rain 65 18.5 65 18.5 100 100 ENE 7 11 29.74 1007 10 16.09344 0.01 0.254
1:35 am 01:35 Cloudy 65 18.5 65 18.5 100 100 SE 10 17 29.77 1008 10 16.09344 0.03 0.762
1:55 am 01:55 Cloudy with Rain 66 18.9 66 18.9 100 100 SSE 10 17 29.8 1009 10 16.09344 0.07 1.778
2:15 am 02:15 Cloudy 66 18.8 66 18.8 100 100 SSE 10 17 29.77 1008 10 16.09344 0.02 0.508
2:35 am 02:35 Cloudy 65 18.6 65 18.6 100 100 S 14 22 29.8 1009 10 16.09344 0.03 0.762
2:55 am 02:55 Cloudy with Light Rain 65 18.5 65 18.5 100 100 S 10 17 29.77 1008 10 16.09344 0.04 1.016
3:15 am 03:15 Cloudy 65 18.5 65 18.5 100 100 SSE 7 11 29.77 1008 10 16.09344 0.01 0.254
3:35 am 03:35 Partly Cloudy 65 18.5 65 18.5 100 100 SE 8 13 29.74 1007 7 11.265408 0.01 0.254
3:55 am 03:55 Partly Cloudy 65 18.5 65 18.5 100 100 Calm 29.74 1007 10 16.09344 0.01 0.254
4:15 am 04:15 Partly Cloudy 65 18.6 65 18.6 100 100 SW 9 15 29.8 1009 10 16.09344 0 0
4:35 am 04:35 Partly Cloudy 65 18.6 65 18.6 100 100 SW 8 13 29.8 1009 10 16.09344 0 0
4:55 am 04:55 Clear 65 18.5 65 18.5 100 100 SW 10 17 29.77 1008 10 16.09344 0 0
5:15 am 05:15 Clear 65 18.2 65 18.2 100 100 SW 8 13 29.77 1008 10 16.09344 0 0
5:35 am 05:35 Clear 64 18 64 18 100 100 SW 6 9 29.77 1008 10 16.09344 0 0
5:55 am 05:55 Clear 64 18 64 18 100 100 SW 3 6 29.83 1010 10 16.09344 0 0
6:15 am 06:15 Clear 64 17.7 64 17.7 100 100 WSW 5 7 29.83 1010 10 16.09344 0 0
6:35 am 06:35 Partly Cloudy 64 17.5 64 17.5 100 100 WNW 3 6 29.85 1011 10 16.09344 0 0
6:55 am 06:55 Mostly Cloudy 64 17.8 64 17.8 100 100 WNW 3 6 29.85 1011 10 16.09344 0 0
7:15 am 07:15 Cloudy 65 18.2 65 18.2 100 100 W 5 7 29.85 1011 10 16.09344 0 0
7:35 am 07:35 Mostly Cloudy 65 18.5 65 18.5 100 100 W 7 11 29.85 1011 10 16.09344 0 0
7:55 am 07:55 Partly Cloudy 66 19 66 19 100 100 W 9 15 29.83 1010 10 16.09344 0 0
8:15 am 08:15 Partly Cloudy 67 19.5 67 19.2 98 98 WSW 7 11 29.85 1011 10 16.09344 0 0
8:35 am 08:35 Mostly Cloudy 67 19.7 67 19.3 98 98 SW 8 13 29.85 1011 10 16.09344 0 0
8:55 am 08:55 Cloudy 68 20 67 19.4 96 96 SW 9 15 29.85 1011 10 16.09344 0 0
9:15 am 09:15 Mostly Cloudy 69 20.8 67 19.5 92 92 SW 10 17 29.85 1011 10 16.09344 0 0
9:35 am 09:35 Partly Cloudy 71 21.5 67 19.7 90 90 WSW 9 15 29.85 1011 10 16.09344 0 0
9:55 am 09:55 Sunny 72 22.2 67 19.7 86 86 WSW 9 15 29.85 1011 10 16.09344 0 0
10:15 am 10:15 Sunny 73 23 69 20.3 85 85 SW 8 13 29.83 1010 10 16.09344 0 0
10:35 am 10:35 Sunny 74 23.5 68 20.1 81 81 SW 10 17 29.83 1010 10 16.09344 0 0
10:55 am 10:55 Sunny 75 24.1 68 20.2 79 79 WSW 10 17 29.83 1010 10 16.09344 0 0
11:15 am 11:15 Sunny 77 24.8 68 20.2 76 76 SW 12 19 29.83 1010 10 16.09344 0 0
11:35 am 11:35 Sunny 78 25.3 69 20.6 75 75 SW 12 19 29.83 1010 10 16.09344 0 0
11:55 am 11:55 Sunny 79 26 69 20.8 73 73 SW 9 15 29.83 1010 10 16.09344 0 0
12:15 pm 12:15 Sunny 79 26.3 70 20.9 72 72 SW 8 13 29.8 1009 10 16.09344 0 0
12:35 pm 12:35 Sunny 80 26.7 70 20.9 71 71 SW 12 19 29.8 1009 10 16.09344 0 0
12:55 pm 12:55 Sunny 81 27.4 70 21 68 68 WSW 7 11 29.8 1009 10 16.09344 0 0
1:15 pm 13:15 Sunny 82 27.5 69 20.6 66 66 W 12 19 29.8 1009 10 16.09344 0 0
1:35 pm 13:35 Sunny 82 27.6 69 20.5 65 65 W 13 20 29.8 1009 10 16.09344 0 0
1:55 pm 13:55 Sunny 82 28 69 20.7 65 65 W 9 15 29.8 1009 10 16.09344 0 0
2:15 pm 14:15 Sunny 83 28.6 71 21.4 65 65 WSW 8 13 29.8 1009 10 16.09344 0 0
2:35 pm 14:35 Sunny 84 28.7 67 19.3 57 57 W 6 9 29.8 1009 10 16.09344 0 0
2:55 pm 14:55 Sunny 84 28.7 70 20.9 63 63 W 6 9 29.8 1009 10 16.09344 0 0
3:15 pm 15:15 Sunny 84 29 70 20.9 62 62 W 6 9 29.8 1009 10 16.09344 0 0
3:35 pm 15:35 Sunny 85 29.2 70 21 61 61 WNW 6 9 29.8 1009 10 16.09344 0 0
3:55 pm 15:55 Sunny 85 29.5 69 20.3 58 58 W 3 6 29.8 1009 10 16.09344 0 0
4:15 pm 16:15 Sunny 86 30 68 20.2 56 56 NW 3 6 29.77 1008 10 16.09344 0 0
4:35 pm 16:35 Sunny 86 30.1 69 20.4 56 56 Calm 29.77 1008 10 16.09344 0 0
4:55 pm 16:55 Sunny 86 30.2 68 20.2 55 55 W 5 7 29.83 1010 10 16.09344 0 0
5:15 pm 17:15 Sunny 87 30.3 70 21.1 58 58 NNW 5 7 29.8 1009 10 16.09344 0 0
5:35 pm 17:35 Sunny 86 30.2 69 20.6 56 56 NNW 3 6 29.83 1010 10 16.09344 0 0
5:55 pm 17:55 Sunny 87 30.5 68 19.8 53 53 Calm 29.8 1009 10 16.09344 0 0
6:15 pm 18:15 Sunny 86 30.2 66 19.1 51 51 Calm 29.83 1010 10 16.09344 0 0
6:35 pm 18:35 Sunny 86 30 68 20.1 55 55 Calm 29.83 1010 10 16.09344 0 0
6:55 pm 18:55 Sunny 85 29.5 72 22.1 64 64 NNE 3 6 29.83 1010 10 16.09344 0 0
7:15 pm 19:15 Sunny 85 29.3 72 22 65 65 Calm 29.83 1010 10 16.09344 0 0
7:30 pm 19:30 Sunny 84 28.9 73 23 71 71 ENE 3 6 29.83 1010 10 16.09344 0 0
7:55 pm 19:55 Sunny 83 28.5 73 22.9 72 72 E 3 6 29.83 1010 10 16.09344 0 0
8:15 pm 20:15 Sunny 82 28 74 23.2 75 75 E 3 6 29.83 1010 10 16.09344 0 0
8:35 pm 20:35 Sunny 81 27.1 74 23.4 80 80 Calm 29.83 1010 10 16.09344 0 0
8:55 pm 20:55 Sunny 80 26.5 74 23.6 84 84 E 5 7 29.83 1010 10 16.09344 0 0
9:15 pm 21:15 Clear 78 25.7 75 24.1 91 91 ESE 3 6 29.85 1011 10 16.09344 0 0
9:35 pm 21:35 Clear 77 25 73 22.9 88 88 Calm 29.85 1011 10 16.09344 0 0
9:55 pm 21:55 Clear 75 24.1 73 22.9 93 93 Calm 29.88 1012 10 16.09344 0 0
10:15 pm 22:15 Clear 75 23.8 73 22.7 94 94 Calm 29.88 1012 10 16.09344 0 0
10:35 pm 22:35 Clear 74 23.2 73 22.6 96 96 Calm 29.88 1012 10 16.09344 0 0
10:55 pm 22:55 Clear 73 22.9 72 22.3 96 96 Calm 29.91 1013 10 16.09344 0 0
11:15 pm 23:15 Clear 73 22.6 72 22.4 99 99 Calm 29.94 1014 10 16.09344 0 0
11:35 pm 23:35 Clear 72 22.1 72 22.1 100 100 Calm 29.94 1014 10 16.09344 0 0
11:55 pm 23:55 Clear 72 22.2 72 22 99 99 NE 3 6 29.94 1014 10 16.09344 0 0

Powered by AerisWeather